Flag for Finland Weather past 2 weeks in Rovaniemi, Finland

Now
55 °F

Scattered clouds.


Feels Like: 53 °F
Forecast: 46 / 57 °F
Wind: 9 mph from Southeast

Location: Rovaniemi Airport

Current Time: Aug 20, 2014 at 3:44:36 PM

Latest Report: Aug 20, 2014 at 2:50 PM


Visibility: N/A

Pressure: 29.47 "Hg

Humidity: 88%

Dew point: 52 °F

Location of RovaniemiLocation

Historic Weather in Rovaniemi — Graph

°F

Rovaniemi temperature yesterday

Maximum temperature yesterday: 59 °F (at 12:20 PM)
Minimum temperature yesterday: 50 °F (at 11:50 PM)
Average temperature yesterday: 55 °F

Past Weeks' High & Low Weather Summary

 TemperatureHumidityPressure
High82 °F (Aug 5, 2:50 PM)100% (Aug 10, 7:20 AM)30.09 "Hg (Aug 10, 7:20 AM)
Low39 °F (Aug 18, 6:20 AM)32% (Aug 7, 5:20 PM)29.39 "Hg (Aug 12, 6:50 PM)
Average59 °F80%29.68 "Hg
* Reported Aug 5 2:20 PM — Aug 20 2:50 PM, Rovaniemi, Weather by CustomWeather, © 2014

Note: Actual official high and low records may vary slightly from our data, if they occured in-between our weather recording intervals... More about our weather records

Advertising

Rovaniemi weather history for previous 24 hours

 ConditionsComfort  
Time TempWeatherWind HumidityBarometerVisibility
2:50 PM
Aug 20
55 °FScattered clouds.9 mph88%29.47 "HgN/A
2:20 PM55 °FBroken clouds.7 mph94%29.47 "HgN/A
1:50 PM55 °FPartly sunny.6 mph94%29.47 "HgN/A
1:20 PM54 °FBroken clouds.6 mph100%29.47 "HgN/A
12:50 PM54 °FPartly sunny.7 mph100%29.47 "HgN/A
12:20 PM54 °FBroken clouds.8 mph100%29.47 "HgN/A
11:50 AM54 °FPartly sunny.8 mph100%29.47 "HgN/A
11:20 AM52 °FSprinkles. Partly sunny.8 mph100%29.45 "HgN/A
10:50 AM52 °FSprinkles. Partly sunny.7 mph100%29.45 "HgN/A
10:20 AM52 °FSprinkles. Partly sunny.7 mph100%29.45 "Hg4 mi
9:50 AM52 °FRain showers. Broken clouds.7 mph100%29.45 "Hg1 mi
9:20 AM52 °FSprinkles. Broken clouds.6 mph100%29.45 "Hg2 mi
8:50 AM50 °FLight rain. Fog.6 mph100%29.45 "Hg1 mi
8:20 AM50 °FFog.6 mph100%29.45 "Hg1 mi
7:50 AM50 °FFog.2 mph100%29.45 "Hg0 mi
7:20 AM50 °FFog.3 mph100%29.45 "Hg0 mi
6:50 AM48 °FFog.3 mph100%29.42 "Hg0 mi
6:20 AM48 °FFog.3 mph100%29.42 "Hg0 mi
5:50 AM48 °FFog.5 mph100%29.42 "Hg0 mi
5:20 AM48 °FFog.7 mph100%29.42 "Hg0 mi
4:50 AM48 °FFog.8 mph100%29.42 "Hg0 mi
4:20 AM48 °FFog.6 mph100%29.42 "Hg0 mi
3:50 AM48 °FFog.6 mph100%29.42 "Hg0 mi
3:20 AM48 °FFog.7 mph100%29.42 "Hg0 mi
2:50 AM50 °FFog.9 mph100%29.42 "Hg0 mi
2:20 AM50 °FFog.7 mph100%29.42 "Hg1 mi
1:50 AM48 °FFog.6 mph100%29.42 "Hg0 mi
1:20 AM50 °FFog.7 mph100%29.42 "Hg0 mi
12:50 AM50 °FFog.7 mph100%29.42 "Hg0 mi
12:20 AM50 °FPassing clouds.3 mph100%29.42 "HgN/A
11:50 PM
Aug 19
50 °FPassing clouds.2 mph100%29.42 "Hg5 mi
11:20 PM52 °FClear.3 mph100%29.39 "Hg10 mi
10:50 PM52 °FFog.5 mph100%29.39 "Hg1 mi
10:20 PM54 °FLight rain. Partly sunny.7 mph94%29.39 "HgN/A
9:50 PM54 °FPartly sunny.5 mph100%29.39 "HgN/A
9:20 PM55 °FBroken clouds.6 mph94%29.39 "HgN/A
8:50 PM55 °FLight rain. Cloudy.5 mph100%29.39 "HgN/A
8:20 PM57 °FPartly sunny.2 mph88%29.39 "HgN/A
7:50 PM57 °FScattered showers. Partly sunny.3 mph88%29.39 "HgN/A
7:20 PM57 °FSunny.3 mph88%29.39 "Hg10 mi
6:50 PM57 °FSprinkles. Partly sunny.3 mph88%29.42 "HgN/A
6:20 PM57 °FSprinkles. Partly sunny.3 mph88%29.42 "HgN/A
5:50 PM57 °FScattered showers. Partly sunny.3 mph94%29.42 "HgN/A
5:20 PM57 °FPassing clouds.3 mph88%29.42 "HgN/A
4:50 PM57 °FScattered showers. Partly sunny.5 mph88%29.45 "HgN/A
4:20 PM57 °FPartly sunny.5 mph88%29.45 "HgN/A
3:50 PM57 °FSprinkles. Broken clouds.5 mph88%29.45 "HgN/A
3:20 PM57 °FPartly sunny.6 mph88%29.45 "HgN/A
Weather by CustomWeather, © 2014

See weather overviewHow to use our weather pages